Find Starlink 4420

NORAD ID: 53654 Int'l Des: 2022-105 Owner: SPXS Country: US Constellation: starlink operational
LEOCIRCULARRETROGRADESSO

現在のビュー

3D地球を読み込み中...

About Starlink 4420

Starlink 4420 (NORAD 53654) is a starlink constellation satellite (v1.5) launched Aug 31, 2022 by SPXS of US. It operates in LEO, CIRCULAR, RETROGRADE, SSO orbit with a mass of 300.00 kg.

Starlink 4420について

説明を読み込み中...

次回通過

Passes for default location (London). Set your location on the main map for personalized predictions.

高度履歴

Loading altitude history...

軌道要素

1 53654U 22105G 26171.21744975 .00004347 00000-0 30523-3 0 9993
2 53654 97.3385 51.1448 0000807 149.4544 210.6731 15.05631044208727
Epoch: Jun 20, 2026 • Age: 11 hours

現在のステータス

高度 556.7 km
速度 7.59 km/s
衛星直下点 45.83°N, 113.7°W
打ち上げ日 Aug 31, 2022
運用期間 3.8 years
タイプ internet

技術仕様

分類 Payload
質量 300.00 kg
乾燥質量 290.00 kg
総質量 300.00 kg
長さ 0.20 m
直径 2.80 m
スパン 9.00 m
形状 Box + pan
製造者 SPXS
バスタイプ Starlink
フェーズステータス In Orbit
所有者/国 SPXS/US

Most Searched